This demonstration page uses our WeatherBlox Daily Observations layout. Learn more.

Left ArrowRight Arrow

44.8408, -93.29828

Hourly Observations for June 25, 2017

Temp ( °F °C ) Dew Point ( °F °C ) Humidity (%) Winds ( mph kmh ) Pressure ( in mb ) Visibility ( mi km ) Precip ( " mm )
12:53 am 00:53 Mostly Cloudy 57 13.9 47 8.3 69 69 WNW 7 11 30.09 1019 10 16 0.00 0.00
1:29 am 01:29 Cloudy 57 13.9 48 8.9 72 72 NW 8 13 30.09 1019 10 16 0.00 0.00
1:53 am 01:53 Mostly Cloudy 57 13.9 48 8.9 72 72 NW 9 15 30.07 1018 10 16 0.00 0.00
2:53 am 02:53 Cloudy 56 13.3 47 8.3 72 72 WNW 9 15 30.08 1019 10 16 0.00 0.00
3:53 am 03:53 Cloudy 57 13.9 47 8.3 69 69 NW 9 15 30.07 1018 10 16 0.00 0.00
4:48 am 04:48 Cloudy 55 13 46 8 72 72 NW 13 20 30.09 1019 10 16 0.00 0.00
4:53 am 04:53 Cloudy 56 13.3 47 8.3 72 72 NNW 10 17 30.08 1019 10 16 0.00 0.00
5:53 am 05:53 Cloudy 55 12.8 48 8.9 77 77 NW 17 28 30.10 1019 10 16 0.00 0.00
6:53 am 06:53 Cloudy 55 12.8 47 8.3 74 74 NW 13 20 30.11 1020 10 16 0.00 0.00
7:53 am 07:53 Cloudy 56 13.3 48 8.9 75 75 NW 13 20 30.12 1020 10 16 0.00 0.00
8:53 am 08:53 Cloudy 56 13.3 49 9.4 77 77 WNW 13 20 30.14 1021 10 16 0.00 0.00
9:53 am 09:53 Cloudy 56 13.3 50 10 81 81 NW 15 24 30.14 1021 10 16 0.00 0.03
10:03 am 10:03 Cloudy 56 13.3 49 9.4 77 77 WNW 15 24 30.15 1021 10 16 0.00 0.00
10:19 am 10:19 Cloudy 57 13.9 49 9.4 74 74 NW 20 31 30.15 1021 10 16 0.00 0.00
10:53 am 10:53 Cloudy 59 15 49 9.4 69 69 NW 17 28 30.15 1021 10 16 0.00 0.00
11:53 am 11:53 Cloudy 59 15 47 8.3 64 64 WNW 16 26 30.16 1021 10 16 0.00 0.00
12:21 pm 12:21 Cloudy 63 17.2 48 8.9 58 58 NW 16 26 30.12 1020 10 16 0.00 0.00
12:53 pm 12:53 Cloudy 62 16.7 47 8.3 58 58 NW 15 24 30.15 1021 10 16 0.00 0.00
1:53 pm 13:53 Mostly Cloudy 67 19.4 46 7.8 47 47 WNW 18 30 30.14 1021 10 16 0.00 0.00
2:53 pm 14:53 Mostly Cloudy 68 20 43 6.1 40 40 NNW 17 28 30.14 1021 10 16 0.00 0.00
3:53 pm 15:53 Mostly Cloudy 67 19.4 42 5.6 41 41 NW 20 31 30.13 1020 10 16 0.00 0.00
4:53 pm 16:53 Mostly Cloudy 68 20 41 5 38 38 NW 17 28 30.13 1020 10 16 0.00 0.00
5:53 pm 17:53 Partly Cloudy 66 18.9 39 3.9 37 37 NW 20 31 30.12 1020 10 16 0.00 0.00
6:53 pm 18:53 Partly Cloudy 67 19.4 40 4.4 37 37 NNW 13 20 30.12 1020 10 16 0.00 0.00
7:53 pm 19:53 Partly Cloudy 65 18.3 39 3.9 39 39 NW 12 19 30.12 1020 10 16 0.00 0.00
8:53 pm 20:53 Partly Cloudy 62 16.7 40 4.4 44 44 WNW 8 13 30.12 1020 10 16 0.00 0.00
9:53 pm 21:53 Partly Cloudy 63 17.2 41 5 45 45 WNW 6 9 30.13 1020 10 16 0.00 0.00
10:53 pm 22:53 Mostly Cloudy 60 15.6 43 6.1 53 53 WNW 8 13 30.13 1020 10 16 0.00 0.00
11:53 pm 23:53 Mostly Clear 59 15 44 6.7 58 58 NNW 7 11 30.13 1020 10 16 0.00 0.00

Powered by AerisWeather